{"data":{"norad_id":59640,"intl_designator":"2024-082K","name":"STARLINK-31806","alt_names":[],"object_type":"PAYLOAD","status":"ACTIVE","operator":null,"country":"US","launch_date":"2024-05-03","launch_site_code":"AFETR","launch_vehicle":null,"mission":null,"orbit_class":"UNKNOWN","rcs_meters":null,"size_class":null,"mass_kg":null,"dimensions":null,"purposes":["comms"],"wikipedia_slug":null,"has_3d_model":false,"image_url":null,"decayed_at":null,"tle_current":{"epoch":"2026-09-21T22:18:46.760832Z","epoch_age_seconds":44722,"freshness":"FRESH","line1":"1 59640U 24082K   26264.92970788  .00001195  00000+0  52939-4 0  9997","line2":"2 59640  43.0026 111.6023 0001198 282.7499  77.3219 15.27571229134823","mean_motion":15.27571229,"eccentricity":0.0001198,"inclination_deg":43.0026,"raan_deg":111.6023,"arg_perigee_deg":282.7499,"mean_anomaly_deg":77.3219,"bstar":5.2939e-5,"rev_number":13482,"period_min":94.267289973946,"perigee_km":482.25338645398,"apogee_km":483.89733293536,"semimajor_km":6861.2123596947,"source":"CELESTRAK","updated_at":"2026-09-22T09:00:49.019315Z"}}}